Regional Weather Roundup
Issued by NWS

Home | Current Version | Previous Version | Text Only | Print | Product List | Glossary On
Versions: 1 2 3 4 5 6 7 8 9 10 11 12 13 14 15 16 17 18 19 20 21 22 23 24 25 26 27 28 29 30 31 32 33 34 35 36 37 38 39 40 41 42 43 44 45 46 47 48 49 50
000
ASUS42 KFFC 171810
RWRGA
WEATHER ROUNDUP FOR GEORGIA
NATIONAL WEATHER SERVICE PEACHTREE CITY GA
200 PM EDT THU AUG 17 2017

NOTE: "FAIR" INDICATES FEW OR NO CLOUDS BELOW 12,000 FEET WITH NO
SIGNIFICANT WEATHER AND/OR OBSTRUCTIONS TO VISIBILITY.

* = USE WITH CAUTION. THE STATIONS MARKED WITH AN ASTERISK MAY NOT
REPORT WEATHER SUCH AS PRECIPITATION, FOG, OR THUNDER AND ARE NOT
QUALITY CONTROLLED BY NWS.

THE REMARK "TC" DENOTES TEMPERATURE READING IN DEGREES CELSIUS.

GAZ001>058-171900-
NORTH GEORGIA

CITY           SKY/WX    TMP DP  RH WIND       PRES   REMARKS
ATLANTA        PTSUNNY   86  73  65 W12       30.08F HX  93
6HR MIN TEMP:  78; 6HR MAX TEMP:  89;

ATHENS         MOSUNNY   90  75  61 VRB5      30.06F HX 100
6HR MIN TEMP:  76; 6HR MAX TEMP:  93;

PEACHTREE CITY MOSUNNY   89  73  59 VRB6      30.08F HX  97
6HR MIN TEMP:  76; 6HR MAX TEMP:  89;

ROME           MOSUNNY   90  74  59 VRB6      30.06F HX  99
6HR MIN TEMP:  76; 6HR MAX TEMP:  90;

WEST ATLANTA   PTSUNNY   89  73  59 W8        30.07F HX  97
6HR MIN TEMP:  76; 6HR MAX TEMP:  90;

GAINESVILLE    SUNNY     87  72  60 W8        30.10F HX  93
6HR MIN TEMP:  76; 6HR MAX TEMP:  88;

CARTERSVILLE   MOSUNNY   88  73  61 CALM      30.08F HX  95
6HR MIN TEMP:  75; 6HR MAX TEMP:  90;



CITY           SKY/WX    TMP DP  RH WIND       PRES   REMARKS
LAWRENCEVILLE* MOSUNNY   90  73  58 W9        30.08F HX  98
MARIETTA       PTSUNNY   85  73  66 W8        30.08F HX  92
KENNESAW*      PTSUNNY   86  72  62 NW10      30.09F HX  92
CANTON*        SUNNY     88  72  58 W6G16     30.10F HX  94
$$

GAZ059>098-102>109-171900-
CENTRAL GEORGIA

CITY           SKY/WX    TMP DP  RH WIND       PRES   REMARKS
AUGUSTA-BUSH   PTSUNNY   95  74  50 W9        30.01F HX 105
6HR MIN TEMP:  81; 6HR MAX TEMP:  97;

AUGUSTA-DANIEL PTSUNNY   94  71  47 W8        30.03F HX 101
6HR MIN TEMP:  82; 6HR MAX TEMP:  95;

COLUMBUS       MOSUNNY   92  70  48 NW12G18   30.07F HX  97
6HR MIN TEMP:  79; 6HR MAX TEMP:  93;

MACON          PTSUNNY  N/A N/A N/A N7        30.05F
ROBINS AFB     PTSUNNY   87  76  71 S3        30.05F HX  98


CITY           SKY/WX    TMP DP  RH WIND       PRES   REMARKS
LAGRANGE*      MOSUNNY   91  73  54 NW7G16    30.09S HX  99
SYLVANIA*      SUNNY     89  80  74 CALM      30.04F HX 106
MILLEDGEVILLE* PTSUNNY   90  75  62 W17       30.06S HX 100
$$

GAZ099>101-110>166-171900-
SOUTH GEORGIA

CITY           SKY/WX    TMP DP  RH WIND       PRES   REMARKS
SAVANNAH       PTSUNNY   93  76  57 SW15      30.03F HX 105
6HR MIN TEMP:  81; 6HR MAX TEMP:  96;

VALDOSTA       PTSUNNY   94  74  52 VRB5      30.06F HX 104
6HR MIN TEMP:  78; 6HR MAX TEMP:  94;

ALMA           MOSUNNY   95  74  50 W6        30.04F HX 105
6HR MIN TEMP:  79; 6HR MAX TEMP:  95;

ST SIMONS      HVY RAIN  85  77  77 N9        30.03F HX  95
6HR MIN TEMP:  82; 6HR MAX TEMP:  95; 6HR PCP:  0.04;

FT STEWART     PTSUNNY   94  73  49 SW6       30.01F HX 103
ALBANY         MOSUNNY   94  71  47 W8        30.08F HX 101
HUNTER AFB     LGT RAIN  84  77  79 S6        30.01F HX  94
MOODY AFB      MOSUNNY   92  75  57 NW5       30.05F HX 102
BRUNSWICK      MOSUNNY   91  72  52 CALM      30.04F HX  98


CITY           SKY/WX    TMP DP  RH WIND       PRES   REMARKS
BAINBRIDGE*    MOSUNNY   95  81  63 W7        30.08S HX 115
MOULTRIE*      MOSUNNY   91  72  52 NW6       30.08S HX  98
VIDALIA*       MOSUNNY   93  73  52 W8        30.04F HX 102
WAYCROSS*      SUNNY     95  69  42 SW7       30.04F HX 100
DOUGLAS*       CLOUDY    84  72  65 E5        30.07F
$$



USA.gov is the U.S. government's official web portal to all federal, state and local government web resources and services.